SL-8 R/B

Satellite information

Favourite Embed

Satellite Type and Status

ROCKET BODYIN ORBIT

Key statistics

Satellite SL-8 R/B at a glance.

Uptime

14785

Days in orbit

Revolutions

≈ 13.8

Per day

Orbit

LEO

Low Earth Orbit

Inclination

82.9

Latest

Satellite identification and parameters

Extended collection of information and parameters for SL-8 R/B.

Object identification

Identified? True

Debris? False

Object name: SL-8 R/B

International designator: 1984-118B

Object number (NORAD): 15399

Object ID (CCSDS): 15399

Country: COMMONWEALTH OF INDEPENDENT STATES (CIS)

Current information (Y/N): Y

RCS size: LARGE

Orbital parameters

Period: 104.621 minutes

Inclination: 82.9486 deg

SMA: 7354.827 km

Apoapsis: 1001.861 km

Periapsis: 951.523 km

RAAN: 26.7483 deg

Eccentricy: 0.0034221

Argument of periapsis: 19.725 deg

Mean anomaly: 33.5595 deg

Mean motion: 13.76398156 rev/day

Mean motion (dot): 0.00000097 rev/day2

B* drag term: 0.000083695 1/REarth

Two-line elements (TLE)

Creation date: May 9, 2025, 2:46 a.m.

Reference frame: TEME

Reference center: EARTH

Epoch: May 8, 2025, 5:33 p.m. UTC

TLE line 0: 0 SL-8 R/B

TLE line 1: 1 15399U 84118B 25128.73176319 .00000097 00000-0 83695-4 0 9995

TLE line 2: 2 15399 82.9486 26.7483 0034221 19.7250 33.5595 13.76398156 32196

Live tracking on map

Real-time ground track for satellite SL-8 R/B.

In-orbit conjunctions

A list of the most updated potential collisions computed for object SL-8 R/B.

Target Orbit TCA Probability of collision Miss distance Type
COSMOS 755 LEO 2024-09-02 11:33:07 0.0007072898 467.0 (m) PAYLOAD

Associated space launch

Navigation satellite providing location information for the Tsiklon-B navigation system

SL-8 R/B was lifted into orbit during the mission ‘Kosmos-3M | Parus 47’, on board a Kosmos-3M space rocket.

The launch took place on Nov. 15, 1984, 6:40 a.m. from 132/1 (132L).

For more information about the launch, click the button.

Launch to space Kosmos-3M | Parus 47
Kosmos-3M | Parus 47

Agency: N/A

Status: Launch Successful

Launch date: Nov. 15, 1984, 6:40 a.m. UTC

Rocket: Kosmos-3M

Launch pad: 132/1 (132L)

Location: Plesetsk Cosmodrome, Russian Federation

...

Latest news about this satellite

There are no fresh news available about this satellite. Check back as we update our databases every day.


Newsletter sign-up

Weekly statistics, charts and insights to help you stay on top of the space industry.